Find Starlink 37108

NORAD ID: 68218 Int'l Des: 2026-053 Owner: SPXS Country: US Constellation: starlink operational
LEOCIRCULARRETROGRADE

Live-Position

3D-Globus wird geladen...

Über Starlink 37108

Beschreibung wird geladen...

Nächste Überflüge

Passes for default location (London). Set your location on the main map for personalized predictions.

Höhenverlauf

Loading altitude history...

Zweizeiliger Elementsatz

1 68218U 26053M 26122.09747028 .00022812 00000-0 70667-3 0 9995
2 68218 97.2854 357.8840 0000913 118.6161 241.5174 15.33451038 8403
Epoch: 2. Mai 2026 • Age: 7 hours

Aktueller Status

Höhe 476.8 km
Geschwindigkeit 7.63 km/s
Subsatellitenpunkt 68.73°N, 159.31°W
Startdatum 17. März 2026
Alter 0.1 years
Typ internet

Technische Details

Klassifizierung Payload
Masse 575.00 kg
Trockenmasse 530.00 kg
Gesamtmasse 575.00 kg
Länge 0.30 m
Durchmesser 4.10 m
Spannweite 29.00 m
Form Box + pan
Hersteller SPXS
Bus-Typ Starlink V2MO
Phasenstatus In Orbit
Besitzer/Staat SPXS/US

Most Searched